Wind_Speed
10 10 9 7 6 5 5 6 8 10 12 12 12 12 15 19 20 20 20 21 20 18 16 15 13 11 11 11 11 12 12 12 12 13 13 12 12 12 12 13 13 13 14 14 14 14 14 14 14 14 14 13 13 14 15 15 14 13 12 11 11 12 12 13 13 13 13 13 13 13 13 14 14 15 16 15 14 12 11 10 10 11 11 11 11
7 9 8 7 6 5 5 6 7 10 12 12 13 13 15 19 21 21 21 23 21 18 17 15 13 12 11 11 12 12 12 12 12 12 13 12 11 11 11 12 13 13 13 13 14 14 14 15 15 15 15 14 14 15 15 15 15 14 12 12 12 12 12 12 13 13 12 13 13 13 13 13 13 13 13 13 12 12 10 9 8 8 10 10 9
7 8 8 8 8 7 5 6 7 10 12 11 12 13 15 18 20 21 23 23 21 18 16 14 12 11 10 11 12 12 12 12 12 12 12 12 11 11 11 12 13 13 13 13 13 14 14 15 15 15 15 15 15 15 15 15 15 14 13 12 12 12 12 12 12 11 11 11 12 12 13 13 13 13 12 10 10 10 10 7 6 6 8 9 7
9 9 9 9 8 8 6 6 7 9 11 10 11 13 15 18 20 22 23 23 20 18 16 13 11 10 10 10 11 12 13 13 13 12 12 12 12 12 12 13 13 13 13 13 14 14 15 15 16 15 15 15 15 15 15 15 15 14 13 12 12 12 12 11 10 10 10 10 10 11 12 12 13 12 11 9 8 9 9 7 6 5 6 7 6
10 10 10 9 9 9 9 7 7 8 11 12 12 14 16 18 21 22 24 23 20 17 15 14 12 10 10 10 11 12 13 13 13 14 13 13 13 13 13 14 14 14 14 13 14 15 15 16 16 15 15 15 14 14 14 14 14 13 12 12 12 12 11 10 8 8 9 10 10 11 11 12 12 12 11 9 8 7 8 8 6 5 5 6 6
11 12 11 11 11 11 9 8 7 8 11 13 13 14 15 18 20 22 23 23 20 17 15 15 14 13 13 14 14 14 15 15 14 14 15 14 14 14 14 14 14 14 14 13 14 14 15 15 15 15 15 14 14 14 14 14 13 12 12 12 11 10 9 8 8 8 9 9 11 12 11 11 11 12 11 9 7 7 8 9 7 4 4 6 7
11 13 12 11 11 10 8 8 8 9 11 13 14 14 14 16 19 21 23 23 20 18 16 16 16 15 15 16 16 16 16 16 15 14 14 14 14 14 14 14 14 14 14 13 13 14 14 14 14 14 14 14 14 14 14 13 13 12 11 11 10 9 8 8 7 8 9 10 11 12 12 11 10 10 10 9 7 7 8 9 7 4 5 6 8
12 14 13 12 11 11 9 9 10 10 10 11 13 14 15 16 18 21 22 22 21 19 18 17 17 16 15 14 14 15 16 16 15 15 15 14 13 13 14 14 13 13 13 13 13 13 13 14 13 14 14 14 13 13 13 13 13 12 11 10 9 9 8 9 9 8 10 12 11 10 11 10 9 8 9 8 8 8 9 10 7 5 6 8 9
12 14 15 15 14 13 12 11 10 10 10 11 13 15 16 17 18 20 22 22 22 20 19 18 17 16 14 13 13 14 15 15 14 14 14 13 12 12 12 13 13 12 12 12 12 12 13 13 13 13 13 13 13 13 13 13 12 12 11 10 10 9 9 10 11 10 10 12 12 10 9 9 8 7 7 8 8 9 10 10 7 6 7 9 10
13 14 14 15 15 16 16 15 12 11 11 11 13 15 16 17 18 19 21 22 22 21 19 18 17 15 14 13 13 14 15 15 14 13 12 12 12 12 12 12 12 11 11 11 11 11 11 11 11 11 12 12 12 12 12 12 12 12 11 11 10 10 10 10 11 11 10 10 11 10 10 8 7 7 7 7 8 9 11 10 9 8 8 9 10
15 15 15 15 16 17 17 15 12 11 11 10 10 13 15 17 18 20 21 22 22 21 19 18 17 16 15 14 14 15 16 16 16 15 14 13 12 11 11 11 11 11 10 10 10 10 10 10 10 10 10 11 10 10 11 11 11 10 11 11 10 10 10 10 10 11 10 9 9 10 10 8 7 7 7 8 8 8 10 10 10 10 10 10 11
16 15 15 16 15 15 14 13 11 10 10 9 9 11 14 17 19 20 21 21 21 21 19 18 17 16 16 15 15 16 16 18 18 18 17 15 14 12 11 11 11 11 10 10 10 9 9 9 9 8 9 9 9 9 9 10 9 9 10 10 10 9 9 9 9 10 9 9 9 9 10 9 7 7 8 8 8 8 8 9 10 10 11 12 11
16 15 14 16 15 13 13 13 11 9 9 10 11 11 14 17 19 21 21 22 22 21 19 18 18 17 17 17 17 16 17 18 19 19 18 16 15 14 13 13 12 12 11 11 10 9 9 9 9 8 8 8 7 8 8 8 8 9 9 9 9 8 8 8 9 9 8 8 8 8 9 10 9 8 8 9 9 9 8 8 9 10 11 11 11
16 15 14 16 16 13 14 14 12 10 10 12 12 13 14 17 20 22 22 23 23 21 20 19 18 18 18 18 18 18 17 17 18 18 18 17 16 15 15 14 13 12 12 11 10 10 9 8 8 8 7 7 6 6 7 7 8 8 9 9 8 8 7 7 7 8 8 8 8 8 8 9 10 10 9 9 9 10 9 8 8 9 10 10 9
18 15 14 16 17 15 15 15 14 13 13 14 14 14 14 16 20 23 24 24 24 23 21 19 19 18 18 19 18 18 18 17 18 18 18 18 17 16 15 14 14 13 12 11 11 10 9 8 8 7 7 6 6 6 6 7 7 8 8 9 9 8 7 7 7 7 7 7 8 8 8 8 10 11 11 10 10 10 9 9 8 8 8 8 8
17 16 14 15 17 17 15 15 15 16 16 16 15 15 14 15 19 23 25 24 25 25 23 21 20 19 19 19 19 19 18 17 17 17 18 19 18 17 16 16 15 14 13 12 11 10 9 8 8 8 7 7 6 6 6 7 8 8 8 9 10 9 9 8 7 7 6 6 7 8 9 8 8 10 11 11 11 10 10 10 10 9 8 7 7
16 17 16 15 16 17 15 15 16 16 17 16 15 15 14 15 18 22 25 25 25 26 26 25 23 20 19 19 19 19 18 17 17 17 18 19 19 18 17 16 15 14 14 13 12 11 10 10 9 9 8 7 7 7 7 8 9 9 9 10 11 11 10 9 8 7 6 6 6 7 8 9 9 9 10 10 10 10 10 10 10 9 8 7 7
16 18 19 18 17 18 17 16 16 17 18 18 17 17 16 15 17 21 24 25 26 26 28 28 26 23 20 19 19 19 18 18 18 18 18 18 18 18 17 16 16 15 15 13 13 12 11 11 11 10 9 8 7 7 8 9 10 10 10 11 12 11 10 9 7 6 5 5 5 4 5 7 9 10 10 9 9 9 9 10 9 9 8 7 6
16 17 18 18 17 18 17 16 17 18 19 20 20 19 17 15 14 18 22 26 28 29 29 29 29 27 24 22 21 20 20 19 19 18 18 17 17 17 17 17 17 16 15 14 14 13 12 12 11 11 9 8 7 8 9 11 11 12 12 12 12 11 10 8 7 6 5 4 5 4 4 5 7 9 10 10 9 8 8 9 9 9 8 7 6
15 14 15 16 17 17 17 17 18 19 20 21 21 19 17 14 13 15 20 25 28 29 29 28 28 28 27 25 23 22 22 21 20 19 18 17 17 17 16 17 17 16 16 15 14 13 13 12 11 11 10 8 7 8 10 12 13 13 13 12 11 10 9 8 7 6 5 4 4 4 3 3 4 6 9 11 11 9 9 9 10 10 9 8 7
18 15 14 16 18 18 18 18 20 21 22 22 21 20 18 15 13 14 18 22 25 27 27 27 27 28 28 27 26 24 23 22 21 20 19 19 18 17 17 16 16 16 15 15 14 14 13 12 11 11 10 9 8 9 11 13 14 14 13 12 11 10 9 8 7 6 5 4 3 3 3 2 2 3 6 9 11 11 10 10 11 10 10 9 8
23 20 18 19 20 20 20 19 20 22 23 23 22 21 19 16 14 14 17 20 23 26 27 27 27 27 27 28 28 27 25 24 23 22 21 21 19 18 18 17 15 15 15 14 14 14 12 11 11 10 10 9 9 10 13 14 15 14 14 13 11 10 9 8 7 6 6 5 4 3 3 2 2 2 2 5 8 10 12 12 12 12 11 10 10
28 27 26 25 25 25 24 22 21 22 23 23 23 21 19 18 16 15 16 18 22 25 28 29 28 28 28 29 29 29 27 26 24 23 23 23 22 22 20 18 18 17 16 15 14 13 12 11 10 10 9 9 10 12 14 16 16 16 15 13 12 11 9 8 7 6 6 5 5 4 3 3 2 2 1 2 5 8 12 13 13 13 13 12 11
34 34 34 34 32 32 31 27 24 25 25 24 24 23 21 20 19 17 17 19 22 25 28 29 29 29 29 30 30 30 29 27 25 25 25 25 24 24 22 21 21 20 18 17 16 14 12 11 10 10 10 10 11 13 16 18 18 17 16 15 13 12 10 9 7 6 5 5 4 4 3 3 2 3 3 3 4 6 10 13 14 14 14 13 12
37 38 39 39 38 37 36 33 30 30 29 27 27 26 24 23 21 19 19 20 22 25 27 29 30 30 31 30 31 31 30 28 27 26 26 26 26 25 24 23 23 21 20 19 18 16 14 13 12 12 11 12 13 14 16 19 19 19 17 16 14 13 11 9 8 7 5 5 4 4 4 3 4 4 4 5 5 6 7 10 13 15 15 15 14
39 40 41 41 40 40 39 37 34 34 33 32 31 30 28 26 25 23 22 22 23 24 27 29 30 31 31 31 31 31 30 30 29 28 28 28 27 26 25 24 24 23 22 21 19 18 17 16 16 15 13 13 14 15 17 19 20 20 19 17 16 14 12 11 9 7 6 5 4 4 4 4 5 5 6 6 6 7 7 9 11 13 15 16 16
40 41 41 42 42 41 41 40 37 36 34 33 34 34 33 32 30 28 27 25 25 25 26 28 30 31 31 31 30 29 29 30 30 30 30 29 28 27 26 25 24 24 23 22 21 20 19 19 18 17 15 14 14 15 16 18 20 21 20 19 17 15 14 12 10 8 7 6 5 4 4 5 5 6 7 7 8 8 9 9 10 12 14 16 17
41 41 42 43 43 43 43 43 41 38 35 34 35 35 36 36 34 33 32 31 29 28 28 28 29 30 30 30 30 29 30 30 31 32 32 31 29 27 27 26 26 25 24 23 22 22 22 22 20 19 17 15 15 15 16 17 19 21 22 20 19 17 15 14 12 10 9 7 6 5 5 6 6 6 7 8 9 10 10 10 11 11 13 15 17
42 42 42 43 44 44 44 45 44 41 38 36 37 37 38 38 37 36 36 35 35 33 32 31 30 30 29 30 31 31 31 31 32 33 33 32 31 29 28 28 27 26 25 25 24 24 23 23 21 20 18 17 15 15 16 17 19 21 23 22 21 19 18 16 14 12 10 9 8 7 7 7 7 7 7 8 10 11 11 12 12 12 13 14 16
43 43 43 43 45 45 45 46 46 44 40 38 39 40 40 40 40 40 40 39 38 36 35 34 33 31 29 29 29 30 31 32 31 31 32 32 32 31 30 29 28 27 27 26 26 25 24 23 22 20 19 17 16 16 17 18 19 21 23 23 23 21 20 18 16 14 13 11 10 9 8 8 8 9 9 9 10 11 12 14 14 13 13 14 16
46 45 45 44 45 46 46 47 48 46 43 41 41 42 43 43 43 43 42 40 37 34 33 32 32 32 30 27 26 26 28 30 31 31 31 32 32 32 31 30 29 29 28 28 27 26 25 24 23 22 20 18 17 17 18 18 20 21 23 24 24 23 21 20 18 16 14 13 12 11 10 10 10 11 11 11 11 11 12 14 15 15 15 15 16
48 47 47 46 46 46 47 48 48 47 45 44 44 44 45 45 44 43 43 42 38 34 33 32 30 31 30 28 27 26 27 30 32 32 32 32 32 33 32 32 31 30 30 29 28 27 26 25 25 23 21 19 19 19 19 19 20 21 22 24 25 25 23 22 20 18 16 15 14 13 12 12 12 13 13 13 13 13 13 14 16 16 16 16 17
50 49 48 47 46 45 44 45 47 47 47 47 46 46 47 47 47 46 44 42 40 38 37 35 32 30 29 29 29 29 30 31 33 34 34 34 34 34 33 33 33 33 33 31 30 28 28 27 26 25 23 21 21 21 21 21 20 21 22 23 24 25 25 24 23 21 19 17 16 15 14 13 14 15 15 15 15 15 15 15 15 16 17 17 18
51 51 49 48 46 43 42 43 45 46 47 49 48 48 48 48 48 47 44 41 41 39 37 37 35 32 30 30 29 29 30 32 33 35 36 35 34 34 34 35 35 35 35 33 32 31 30 29 27 26 25 24 24 24 23 23 22 22 23 23 24 25 25 25 25 24 22 20 19 17 15 15 15 16 16 17 17 17 17 16 16 16 17 18 19
53 53 52 50 49 46 43 43 44 44 46 49 50 50 49 48 49 47 43 41 42 39 35 36 37 35 33 32 29 28 30 33 34 35 36 36 35 34 34 35 36 37 36 35 35 33 32 31 30 29 28 27 26 26 26 25 24 24 24 24 24 24 25 25 26 25 24 23 22 20 19 18 17 18 18 19 19 19 19 18 17 17 18 19 20
56 56 55 54 53 51 48 46 45 45 47 49 51 51 50 49 49 47 42 41 41 39 37 37 37 35 34 33 31 30 32 34 34 35 35 35 35 34 34 35 36 37 37 37 36 35 34 33 32 31 30 28 28 28 28 27 26 26 26 25 24 24 24 24 25 25 26 25 25 24 23 22 21 20 20 21 22 21 20 20 20 20 20 20 21
59 59 59 58 57 55 52 49 47 46 48 49 50 50 49 50 51 49 44 41 40 39 38 39 39 38 37 36 35 34 34 35 35 34 34 34 34 35 35 36 36 37 37 37 37 36 36 36 35 34 32 30 30 31 30 30 29 29 28 26 25 24 24 24 24 25 26 27 27 26 26 25 24 24 24 24 24 24 22 22 22 22 22 21 22
63 63 62 62 60 58 55 52 51 49 48 50 51 51 49 49 50 49 45 42 40 39 39 41 41 40 39 38 37 35 34 34 34 32 32 32 33 35 36 37 37 37 37 37 37 38 38 37 37 36 34 33 33 33 33 33 32 31 30 28 26 26 25 25 25 26 27 28 28 29 28 27 26 26 27 28 27 26 25 25 25 25 24 23 23
59 65 67 65 62 61 57 54 53 53 51 51 53 53 50 46 45 45 44 43 41 40 41 42 42 41 40 40 37 33 31 31 31 31 30 31 32 34 36 38 38 38 38 38 38 39 38 38 38 37 36 35 35 35 35 35 34 34 31 29 28 27 26 26 26 27 28 29 29 30 30 29 28 29 31 31 30 29 27 28 28 26 24 24 26
48 58 67 69 65 62 59 56 54 54 55 53 53 54 52 47 44 43 44 43 41 41 42 43 42 41 41 40 38 33 31 30 31 31 30 30 31 33 36 38 38 39 39 39 39 39 39 38 38 38 38 37 36 37 37 36 36 36 33 32 31 28 27 27 28 28 29 29 30 31 31 31 31 32 34 35 34 32 30 30 30 28 26 27 28
47 46 54 64 67 63 58 57 56 54 54 55 56 55 52 48 45 44 44 44 43 43 44 45 43 42 41 40 38 35 32 32 32 33 32 31 31 32 34 37 38 39 40 40 39 39 38 38 38 38 38 37 37 37 37 37 37 37 35 35 33 31 30 30 30 30 30 30 30 32 33 34 35 35 37 38 37 35 32 31 31 29 29 30 29
57 46 43 51 61 63 59 58 58 56 53 54 57 56 53 49 46 45 45 46 46 45 46 47 46 44 42 40 39 37 35 34 35 35 34 33 32 32 34 36 37 39 39 39 39 39 38 37 37 37 37 36 36 37 37 37 37 37 37 37 35 34 34 34 33 31 30 31 32 33 34 36 37 38 39 40 39 38 36 33 32 31 32 32 30
66 58 49 46 51 59 62 59 57 56 55 54 55 56 54 51 48 47 47 47 47 47 47 47 46 46 45 42 41 39 37 37 38 38 37 36 34 33 34 35 36 37 38 39 39 38 37 37 37 37 36 36 36 35 35 35 35 36 37 37 36 36 36 36 35 32 32 33 34 35 36 37 38 39 40 41 41 40 38 36 34 34 34 33 31
71 67 63 55 49 51 59 61 58 55 54 54 55 56 55 52 49 48 48 47 47 47 48 47 46 47 47 45 42 41 39 38 40 40 39 38 37 35 34 35 35 36 37 38 38 38 37 37 36 36 35 35 34 34 33 33 34 35 35 35 35 35 36 36 35 34 34 35 36 37 37 37 38 39 40 42 42 41 40 38 37 36 35 34 32
78 73 71 67 57 50 53 58 60 58 55 54 55 55 53 50 49 48 47 47 46 47 48 50 48 47 47 46 44 42 40 40 41 42 41 39 38 37 36 35 35 35 35 36 36 36 36 35 35 34 33 33 33 33 33 33 33 35 35 34 34 34 35 35 35 34 34 36 37 38 39 38 38 39 40 41 42 41 41 40 39 38 36 35 34
84 80 77 75 69 60 53 52 57 62 61 58 55 54 53 50 47 46 45 45 44 43 45 49 50 48 46 46 45 43 43 44 45 46 44 41 39 38 38 37 37 35 34 33 33 34 34 33 32 30 30 31 32 33 33 33 33 34 34 34 34 34 35 35 34 33 34 36 38 38 38 38 38 38 39 40 41 42 42 41 39 38 37 36 35
88 85 82 80 76 71 62 53 52 59 64 63 58 53 53 52 49 46 45 44 44 43 44 47 48 46 45 45 45 45 46 47 49 51 51 46 41 40 41 40 38 36 34 33 33 33 32 31 29 28 28 29 31 32 32 32 33 33 33 34 36 36 37 37 36 34 35 37 39 39 39 40 40 40 40 40 40 41 42 40 38 38 38 37 37
92 89 86 84 80 77 72 63 56 55 60 65 63 58 55 54 53 50 47 45 45 45 46 47 47 45 44 45 47 47 45 45 48 55 58 52 45 42 43 42 40 38 36 35 35 34 33 31 29 28 28 30 31 30 30 30 31 33 34 36 37 38 39 39 38 37 39 41 41 40 40 41 42 42 41 40 39 41 41 40 39 39 38 38 37
94 93 90 87 84 81 78 74 68 61 57 59 62 62 59 57 55 53 49 46 46 47 48 48 46 45 45 47 48 48 45 42 43 49 53 52 47 44 45 44 42 40 39 38 38 36 34 33 32 31 31 31 30 29 28 30 32 35 37 39 39 40 40 40 40 40 43 45 43 40 39 40 42 42 41 41 40 40 40 41 40 40 39 38 38
94 94 93 90 87 85 83 80 77 73 64 57 56 59 60 57 55 53 50 47 46 48 50 49 48 47 47 47 48 48 47 45 44 45 46 46 45 44 45 44 43 42 41 41 41 39 37 36 35 33 33 33 31 30 31 33 35 36 39 41 41 41 41 40 40 43 45 45 43 40 39 39 40 41 41 41 40 39 40 41 42 41 40 39 38
95 95 94 92 90 88 87 84 81 79 74 64 56 54 55 56 55 54 52 50 48 49 51 52 51 50 49 49 49 49 48 47 47 47 46 45 44 44 44 44 43 43 42 43 43 41 39 38 36 34 34 34 34 34 34 35 37 38 40 41 41 41 41 41 42 44 45 43 42 41 40 39 39 40 41 40 39 39 40 41 43 42 41 39 38
Wind_Direction
193 199 197 182 179 187 184 177 174 179 185 180 174 172 170 169 170 171 168 166 166 165 161 158 159 162 158 155 151 145 136 131 135 135 128 126 130 135 134 128 123 120 119 117 116 114 112 110 108 107 108 113 121 128 133 134 133 130 125 118 116 118 117 111 104 100 101 102 105 110 113 113 112 111 111 111 110 106 99 93 90 90 89 89 90
200 200 199 185 173 181 185 176 173 180 187 188 180 174 173 172 171 170 167 167 168 168 166 162 162 162 158 157 154 146 136 131 134 133 129 132 137 137 133 126 121 119 116 115 114 114 112 110 106 103 104 109 117 124 131 134 134 132 128 123 124 125 119 108 100 96 97 100 108 114 114 113 112 110 110 111 111 107 98 89 84 85 86 86 87
204 201 203 197 178 173 185 183 178 184 190 192 186 177 174 174 172 171 169 168 169 169 169 166 163 161 157 157 154 145 136 132 133 134 133 138 140 136 131 124 120 119 117 116 116 115 113 110 106 104 104 107 113 119 126 131 132 132 130 126 127 127 121 111 106 101 94 95 105 115 116 116 115 112 111 111 108 103 97 87 77 78 85 87 84
206 200 202 208 192 173 182 189 181 185 191 192 190 184 178 175 175 174 170 169 170 171 170 167 164 160 153 153 151 145 140 136 137 138 138 142 142 137 132 126 123 122 120 118 118 117 114 112 109 107 107 109 112 117 123 127 130 130 129 127 128 129 125 120 115 107 98 94 99 109 116 119 117 116 116 112 102 98 95 86 71 70 82 87 85
207 203 199 206 204 187 183 186 177 182 189 189 192 192 184 177 178 177 172 170 171 172 170 166 164 160 152 151 152 150 145 142 144 144 143 146 144 139 134 129 125 124 121 120 120 120 118 114 111 111 111 111 114 119 122 124 126 126 126 126 128 128 126 123 115 101 94 97 102 108 115 120 120 120 119 114 107 104 100 89 71 62 75 86 88
203 199 195 200 209 202 186 176 172 180 189 190 191 194 190 181 179 179 174 172 171 172 172 169 168 168 164 164 163 161 156 151 152 149 146 148 146 140 135 129 127 125 123 122 122 121 118 115 114 114 113 114 117 121 122 121 122 122 123 124 124 125 123 117 109 98 93 97 106 113 115 118 120 120 119 114 112 109 100 91 77 62 75 85 88
198 189 186 195 211 211 194 177 174 182 191 193 191 191 193 187 182 182 178 174 171 172 175 175 175 177 178 175 170 166 160 155 155 153 149 149 146 142 136 130 128 127 126 124 122 119 116 114 115 116 115 116 118 120 119 119 119 119 120 121 122 123 121 112 102 99 102 103 108 114 117 118 118 119 118 116 116 109 97 89 82 78 87 91 93
194 184 178 184 203 213 210 196 184 184 189 194 193 191 194 191 186 185 182 176 173 174 179 181 183 185 185 180 174 168 164 162 161 158 153 151 147 143 139 133 131 130 130 128 125 121 118 116 116 117 115 115 117 119 119 119 119 119 119 120 122 123 120 112 104 104 108 108 107 108 112 117 119 118 117 118 118 110 97 90 87 93 100 99 100
194 187 179 179 191 203 211 210 196 182 182 190 194 194 195 192 188 187 184 179 177 179 182 188 191 191 187 181 176 172 169 167 166 163 158 154 150 148 144 140 137 136 136 134 128 124 121 118 117 117 116 115 115 118 119 118 119 120 120 121 122 122 119 115 111 110 110 109 109 108 107 112 119 120 118 117 116 109 101 98 99 104 104 103 106
195 191 186 184 191 199 206 209 200 184 184 192 194 193 195 193 189 188 187 183 182 184 187 193 195 192 187 183 178 176 173 171 169 168 165 160 157 155 153 150 147 145 143 139 133 128 125 120 117 117 116 115 115 117 116 117 119 120 122 123 123 123 121 119 117 115 112 111 113 113 109 109 118 122 118 114 111 107 106 108 111 111 106 105 109
197 196 195 192 195 203 207 207 201 190 188 193 194 193 195 195 192 190 189 188 187 189 191 196 197 193 188 184 182 181 179 176 174 173 171 169 167 165 163 160 158 155 152 147 142 136 132 127 121 117 117 116 116 116 116 117 120 123 125 125 125 126 126 123 121 121 120 119 118 115 111 111 115 120 117 111 108 107 110 114 118 117 115 114 114
199 201 202 198 196 205 211 212 208 195 182 186 194 194 193 195 196 194 191 190 192 194 195 196 198 197 190 184 186 189 187 183 182 181 180 177 174 173 173 171 168 166 165 161 155 149 142 136 131 126 122 121 121 119 118 121 124 128 128 127 127 130 131 130 128 127 127 127 125 121 119 119 120 124 122 117 114 112 114 118 121 122 123 124 122
202 204 205 198 192 199 210 214 214 198 180 183 194 198 194 194 197 196 194 192 194 197 198 197 198 199 194 188 189 194 195 193 191 189 187 183 179 180 182 181 178 175 174 172 167 161 155 148 142 137 132 129 128 126 127 130 134 135 133 131 132 133 135 135 133 132 133 132 131 131 133 132 131 131 128 125 122 118 117 122 126 127 129 130 129
198 203 203 194 188 191 200 206 209 203 192 189 196 204 201 195 195 197 197 194 194 197 200 199 199 200 198 194 192 195 199 199 198 195 192 189 188 188 188 188 186 183 181 181 176 170 165 158 149 144 140 137 136 135 137 141 142 142 140 138 138 138 138 139 139 139 141 140 139 138 142 143 139 136 134 131 126 122 121 123 129 133 135 137 134
192 197 201 195 188 185 189 195 202 204 201 197 199 206 207 201 197 198 199 197 194 196 199 202 202 200 200 200 197 197 200 202 203 201 197 195 195 194 194 194 193 191 189 186 184 178 172 163 155 148 145 144 145 147 148 150 150 149 148 145 143 142 141 141 140 142 144 146 146 143 145 150 144 140 140 138 131 127 126 129 135 141 141 139 131
197 193 197 200 194 187 186 190 197 203 205 203 204 207 208 206 201 198 200 200 196 194 196 202 206 203 201 203 204 202 202 203 205 205 203 200 199 198 199 199 197 196 194 190 188 184 176 166 158 153 151 150 153 158 159 157 155 156 154 148 144 141 138 135 131 131 134 143 150 149 149 152 148 144 147 145 140 138 138 140 143 147 148 143 134
210 197 192 198 198 193 191 193 198 204 206 205 205 207 209 208 203 200 200 201 200 196 195 199 205 206 202 204 208 209 206 204 204 205 207 207 203 201 202 202 201 201 200 195 190 184 177 169 162 157 155 156 158 162 165 163 160 159 156 148 142 139 134 131 126 125 129 137 148 154 152 152 152 153 152 149 145 145 145 147 148 150 153 151 145
210 202 194 194 196 193 193 195 199 204 205 204 204 208 213 212 207 203 200 200 202 201 198 197 200 205 206 204 208 212 211 208 206 204 207 210 208 205 203 203 204 205 203 199 194 187 177 171 165 161 159 159 163 165 166 165 163 161 156 149 144 140 135 132 128 123 123 125 129 136 148 158 163 164 158 152 150 152 152 154 155 156 161 162 160
202 200 193 192 194 193 193 195 199 202 204 206 207 211 216 216 212 207 201 200 202 204 202 198 197 200 205 206 206 209 213 213 211 208 207 210 213 211 207 205 207 207 205 202 198 191 181 173 167 163 161 162 165 169 168 166 164 162 158 153 148 144 140 138 135 129 124 118 115 114 127 157 171 175 169 161 159 162 166 166 166 168 171 174 176
201 196 188 189 192 195 198 200 201 202 204 207 210 215 220 219 214 209 205 203 203 205 205 203 198 198 202 205 206 207 211 213 214 211 208 208 212 215 214 213 211 210 208 205 202 195 187 178 168 162 163 165 167 171 171 167 165 165 162 159 155 152 150 147 143 140 135 126 116 113 114 130 166 183 182 173 168 172 179 182 182 181 182 185 189
203 204 197 193 192 195 200 202 204 204 204 207 210 213 217 217 213 210 207 205 203 204 207 207 204 200 200 203 206 207 209 212 213 212 209 210 211 213 218 219 218 217 213 210 206 202 194 183 173 165 163 166 169 173 174 171 170 169 168 166 164 162 160 157 152 151 147 139 132 128 128 126 145 180 189 183 180 182 187 193 195 194 194 196 199
200 207 208 201 196 197 198 201 206 208 208 210 212 213 214 213 212 212 209 204 202 203 205 207 208 205 202 202 205 207 207 209 211 211 210 210 209 210 214 218 221 222 219 216 213 209 201 189 178 170 166 169 172 175 178 177 176 176 174 172 171 170 169 167 164 162 160 156 155 155 157 158 158 167 181 185 190 195 199 202 204 204 205 208 208
194 200 205 203 200 199 201 204 207 207 208 210 213 214 213 212 212 212 209 204 201 202 203 205 207 207 205 203 204 207 208 208 208 209 211 211 209 209 209 210 215 219 220 219 218 214 208 197 185 178 175 177 178 178 181 183 183 182 180 178 178 177 177 177 175 171 168 167 168 171 178 183 183 189 195 197 204 208 210 211 212 212 214 217 218
193 196 199 201 201 200 202 206 206 204 204 207 210 212 211 212 212 210 208 205 202 202 203 203 204 206 207 205 205 207 209 209 207 207 210 213 212 210 207 206 209 214 216 218 218 216 212 205 197 192 189 188 187 184 185 189 189 187 186 184 183 183 183 184 184 180 175 174 175 180 191 198 205 212 222 227 227 223 220 219 219 219 221 222 224
197 197 200 202 203 203 202 204 204 202 202 202 204 208 209 211 211 209 208 207 205 203 203 202 203 206 208 207 206 207 208 209 209 208 210 213 215 214 210 208 209 211 214 217 217 215 214 213 210 206 201 197 196 192 189 192 194 192 191 189 187 187 188 189 189 186 183 182 183 188 196 205 216 225 231 233 238 240 235 229 226 225 226 226 228
203 202 202 204 205 206 205 206 205 204 203 201 199 202 205 207 209 208 208 210 208 205 204 202 203 205 208 208 209 209 208 208 209 210 212 214 215 216 214 212 212 212 214 216 216 215 215 216 216 214 209 203 201 199 195 194 196 196 194 193 191 191 192 193 194 193 192 191 194 200 205 212 220 229 235 239 241 244 245 243 237 232 231 231 232
210 208 207 207 207 208 208 208 208 207 207 204 200 199 200 203 206 208 208 208 209 208 206 204 203 205 207 209 210 210 210 210 210 211 214 216 216 216 217 217 216 215 216 217 217 216 217 218 219 217 214 208 204 204 202 198 198 198 197 196 196 194 195 197 199 200 202 201 205 214 222 226 228 230 236 241 243 244 246 248 247 242 237 235 235
213 213 212 211 210 209 209 210 210 210 211 210 205 203 203 204 205 208 208 206 206 207 207 206 204 204 205 208 210 210 210 212 212 213 214 216 217 216 217 219 220 218 218 218 218 218 219 220 220 218 215 210 204 205 207 204 201 199 199 198 198 198 198 199 201 204 208 211 215 224 236 243 243 238 237 240 243 246 248 248 247 247 245 241 240
213 216 216 215 213 211 210 211 212 212 214 214 210 207 208 209 209 210 211 209 205 204 204 204 203 201 201 204 207 209 210 212 213 215 216 216 217 217 217 219 221 220 220 220 219 220 221 222 222 220 217 212 205 204 207 207 204 202 201 201 201 201 201 201 202 206 210 215 219 227 239 250 257 258 252 247 246 248 250 250 248 246 246 246 245
211 216 218 217 216 214 212 213 213 214 216 217 214 210 210 212 212 213 213 213 210 206 203 202 200 198 198 201 204 207 210 213 215 217 219 219 218 218 219 219 220 221 222 223 222 222 222 223 224 223 218 212 206 205 206 208 207 205 204 204 203 203 204 204 205 208 211 216 221 226 235 247 257 265 266 261 257 254 254 255 256 251 248 247 248
210 214 218 219 218 217 215 215 215 215 217 218 216 213 212 214 215 215 216 215 214 214 213 209 202 198 197 199 201 205 208 212 214 216 219 222 221 220 220 221 221 221 223 224 225 224 223 224 225 225 220 212 208 208 208 208 209 209 207 207 206 207 207 207 208 212 214 217 222 226 233 242 251 258 264 268 269 265 261 260 260 258 255 253 252
211 214 217 219 220 219 218 218 218 217 217 218 217 215 214 216 217 218 220 218 213 213 219 219 213 206 201 198 196 199 203 206 210 213 215 219 221 221 221 221 222 223 224 225 225 225 225 225 226 226 223 216 211 212 211 210 210 212 211 210 210 210 210 210 211 215 217 220 224 228 233 239 246 253 260 266 269 269 266 263 262 262 260 258 257
212 216 218 219 221 221 221 221 221 220 219 217 217 216 215 217 217 219 221 220 214 210 211 215 218 217 213 204 196 196 200 202 205 209 212 215 218 219 220 220 222 224 225 226 226 226 226 226 227 227 226 222 218 217 216 213 213 214 215 215 215 214 214 214 215 217 220 223 227 231 235 240 246 252 259 265 268 269 269 267 265 265 262 259 258
212 215 217 218 218 219 219 220 221 222 221 220 218 216 216 217 219 220 220 220 220 218 211 208 212 217 220 216 206 202 203 202 202 206 210 213 216 217 218 219 220 223 225 226 227 226 227 227 228 228 228 226 225 223 221 218 216 216 217 218 218 218 217 218 220 222 225 227 230 234 239 244 248 252 256 262 267 270 271 271 270 269 267 263 260
213 214 215 216 217 217 217 219 219 220 222 222 221 219 218 218 219 221 221 220 223 225 218 209 209 213 218 220 219 216 211 205 202 203 208 212 214 216 218 219 220 222 224 226 227 227 227 228 228 229 230 229 229 229 227 224 221 220 220 220 220 220 220 220 222 225 228 231 234 236 239 245 249 251 253 256 261 266 270 272 273 272 270 269 266
213 215 216 217 218 218 218 218 218 218 220 222 222 222 222 221 220 220 221 221 222 226 224 216 213 213 215 218 222 224 219 211 204 204 206 209 212 214 217 219 219 220 222 224 226 227 228 228 229 230 231 232 233 234 233 231 228 226 224 223 223 223 224 223 224 226 229 233 236 239 241 245 248 250 250 252 255 258 263 266 268 269 269 270 271
214 214 216 218 219 218 218 219 220 221 221 220 221 223 223 224 224 221 219 220 222 226 227 222 217 215 213 214 218 222 222 218 212 208 207 208 211 213 216 218 219 220 221 222 224 226 227 228 229 229 230 232 234 236 237 236 234 232 229 227 225 225 226 226 226 228 230 232 236 240 243 245 248 250 251 250 250 252 255 258 260 262 264 267 269
216 215 215 218 219 218 217 218 220 223 223 221 221 222 222 223 224 222 219 219 220 224 227 225 222 218 213 212 215 219 223 223 219 214 210 208 210 213 216 218 219 219 220 220 221 222 224 226 227 228 228 229 231 235 238 239 239 238 235 232 229 227 227 228 229 230 231 233 236 239 242 244 246 249 251 251 249 248 249 252 255 256 258 262 266
215 216 216 216 218 219 219 219 220 223 223 221 221 223 223 223 225 223 220 219 220 222 225 225 225 223 217 214 216 220 225 226 221 217 215 212 212 215 217 219 220 219 219 220 220 221 222 223 225 227 226 227 229 232 236 238 241 242 241 239 236 233 231 230 231 233 234 235 236 239 241 242 244 246 249 250 249 247 247 249 253 254 256 260 262
209 211 214 216 217 218 219 219 220 222 223 222 221 223 224 224 224 222 221 221 221 222 224 224 223 222 219 217 218 221 225 226 221 219 220 217 215 217 220 221 221 220 220 220 220 220 221 221 223 225 226 226 226 229 233 235 239 242 244 244 243 240 237 235 235 236 237 238 239 240 241 242 243 244 246 248 249 248 246 247 251 254 256 258 259
211 203 208 214 216 217 219 221 222 222 222 222 222 222 223 223 221 220 220 222 222 223 225 226 224 221 220 220 221 221 221 222 220 220 222 222 219 219 221 222 222 221 221 221 221 221 221 221 222 224 226 226 226 228 231 233 237 240 243 245 246 245 244 241 239 238 239 241 242 243 244 244 244 244 245 247 248 248 247 247 250 252 253 255 257
220 210 204 208 214 218 222 224 224 223 221 221 222 222 222 222 221 220 221 222 222 222 225 227 226 223 221 222 223 222 219 218 219 221 224 224 223 222 223 223 223 223 223 222 222 222 221 221 223 224 225 226 227 229 231 233 235 238 241 243 245 246 246 246 244 242 242 243 245 246 246 246 246 246 247 248 249 249 249 249 250 250 251 254 257
224 220 214 210 213 219 223 224 223 222 220 221 221 221 222 222 221 221 223 223 224 224 225 227 226 223 222 221 221 222 220 217 219 223 226 225 223 223 224 225 225 225 225 224 223 223 222 222 223 224 225 226 228 230 232 234 236 237 239 241 242 243 245 247 247 245 243 243 245 246 247 248 249 250 250 251 251 251 251 251 250 250 251 253 255
225 223 222 220 217 216 219 222 223 222 220 219 220 220 221 222 220 221 223 225 225 226 226 226 226 225 223 222 221 223 223 220 219 223 226 226 223 221 222 225 227 227 227 226 226 225 224 222 223 224 225 226 228 230 232 235 238 240 241 241 242 242 243 245 246 245 244 243 243 245 246 247 249 251 252 253 253 253 252 252 251 251 251 252 254
226 225 226 227 224 218 217 220 224 223 219 217 217 218 219 219 219 221 222 223 225 227 227 225 226 227 226 224 224 225 227 224 220 221 224 225 225 223 222 223 225 227 228 228 229 229 228 226 225 225 226 227 228 230 233 236 239 243 245 245 245 244 244 244 243 242 243 243 243 244 245 246 248 250 253 255 256 255 254 252 252 252 252 253 253
228 228 227 229 229 226 222 219 221 223 221 217 216 217 218 218 218 219 221 221 223 227 226 223 225 227 227 226 227 227 227 225 222 220 220 221 224 225 224 222 223 225 226 227 228 230 231 230 228 228 228 229 230 232 234 236 239 243 246 248 249 249 247 246 243 241 242 243 243 243 244 245 246 248 250 253 255 255 255 254 254 254 254 253 253
231 230 229 229 230 229 227 221 218 220 222 220 218 219 220 220 219 220 221 222 223 223 222 222 225 227 227 227 227 227 227 225 221 218 217 218 222 226 225 223 222 223 225 225 226 228 229 230 229 228 229 231 233 234 235 237 239 243 245 247 247 248 249 249 247 244 243 244 243 242 242 243 243 245 247 249 251 253 255 257 257 256 255 254 253
231 232 231 231 230 229 227 225 221 219 220 220 220 221 221 222 222 222 222 222 222 221 220 222 225 227 226 226 226 225 225 223 220 217 217 220 224 225 223 223 223 223 223 225 225 226 226 226 226 226 228 231 233 234 236 238 240 241 243 244 245 246 248 250 250 248 247 246 245 243 242 242 243 244 245 247 248 251 255 258 259 258 257 255 254
231 232 231 231 231 229 228 228 227 225 222 220 219 219 220 222 223 223 223 223 223 221 220 222 224 225 225 226 226 223 220 218 218 218 219 222 224 224 222 222 222 223 225 226 227 227 226 225 225 225 228 232 235 236 238 240 240 241 243 245 246 247 248 249 250 251 250 250 250 250 248 247 246 246 247 248 249 251 255 258 259 259 257 256 256
230 231 231 231 231 230 229 229 230 231 229 225 219 216 218 221 224 224 223 223 223 221 220 220 222 223 224 226 226 222 218 217 218 218 219 221 222 223 224 223 223 224 227 228 229 229 228 228 228 229 230 233 235 236 239 241 243 244 246 248 250 250 251 251 251 252 253 255 257 257 256 253 251 250 250 250 251 252 255 257 259 258 257 256 256
231 231 231 231 230 231 230 230 232 233 233 232 227 221 219 221 225 226 226 225 224 222 221 220 221 221 223 225 225 223 221 220 219 219 219 220 221 224 226 226 227 228 230 231 233 233 232 232 233 233 234 236 235 236 238 241 244 246 249 251 253 254 255 255 254 254 254 256 259 261 261 258 255 254 253 253 253 253 254 256 257 257 257 257 256
Height
5906 5906 5906 5907 5907 5908 5909 5909 5910 5911 5911 5912 5913 5914 5915 5916 5917 5919 5921 5922 5924 5925 5925 5926 5928 5929 5930 5931 5931 5932 5933 5933 5935 5935 5935 5936 5937 5939 5940 5940 5940 5941 5941 5942 5942 5942 5943 5943 5944 5944 5944 5945 5945 5946 5947 5948 5949 5950 5950 5951 5951 5951 5952 5952 5952 5952 5953 5952 5953 5953 5954 5954 5954 5954 5953 5953 5954 5954 5954 5954 5954 5953 5953 5952 5952
5906 5906 5906 5907 5907 5908 5909 5909 5910 5910 5911 5912 5913 5914 5915 5916 5917 5919 5921 5922 5923 5924 5925 5926 5928 5929 5930 5931 5932 5933 5933 5934 5935 5936 5936 5937 5939 5940 5941 5941 5941 5942 5942 5943 5943 5943 5944 5944 5945 5945 5945 5946 5947 5948 5949 5950 5950 5951 5952 5952 5952 5953 5953 5953 5954 5954 5954 5954 5954 5955 5955 5955 5955 5955 5954 5954 5955 5955 5955 5955 5955 5955 5954 5953 5953
5906 5907 5907 5906 5907 5908 5908 5909 5909 5910 5911 5912 5913 5914 5915 5916 5918 5919 5921 5922 5924 5925 5926 5927 5928 5929 5931 5932 5932 5933 5934 5935 5936 5937 5937 5939 5940 5941 5941 5941 5942 5943 5943 5944 5944 5945 5945 5945 5945 5946 5946 5947 5948 5949 5950 5951 5952 5952 5953 5953 5954 5954 5955 5955 5955 5956 5956 5956 5956 5956 5956 5956 5956 5956 5956 5956 5956 5956 5956 5956 5956 5956 5955 5955 5954
5906 5907 5907 5906 5907 5908 5908 5909 5909 5910 5911 5912 5914 5915 5915 5916 5918 5919 5921 5923 5924 5925 5926 5928 5929 5930 5931 5933 5934 5934 5935 5936 5937 5938 5939 5940 5941 5942 5942 5942 5943 5944 5945 5946 5946 5946 5946 5946 5947 5947 5948 5948 5949 5950 5951 5952 5953 5954 5954 5955 5955 5956 5956 5956 5957 5957 5957 5957 5957 5956 5957 5957 5957 5957 5957 5958 5957 5957 5957 5957 5957 5957 5957 5956 5956
5905 5906 5906 5906 5906 5907 5908 5909 5909 5910 5910 5911 5913 5915 5915 5916 5917 5919 5921 5922 5924 5926 5927 5928 5930 5931 5932 5933 5934 5935 5936 5937 5938 5939 5939 5941 5942 5943 5943 5944 5944 5945 5946 5947 5947 5948 5948 5948 5948 5949 5949 5950 5951 5952 5952 5953 5954 5955 5955 5956 5956 5957 5957 5958 5958 5958 5957 5957 5957 5957 5958 5958 5958 5958 5958 5958 5959 5958 5958 5958 5958 5959 5958 5957 5957
5903 5904 5905 5905 5905 5906 5908 5908 5909 5910 5910 5911 5913 5914 5916 5917 5918 5919 5921 5923 5924 5926 5927 5928 5930 5931 5932 5933 5934 5935 5936 5937 5938 5939 5940 5941 5943 5943 5944 5945 5945 5946 5947 5948 5948 5949 5949 5949 5950 5950 5950 5951 5952 5953 5953 5954 5955 5956 5956 5957 5957 5958 5958 5958 5958 5958 5958 5958 5958 5958 5959 5959 5959 5959 5959 5959 5960 5960 5959 5959 5959 5960 5960 5959 5959
5901 5902 5903 5904 5905 5906 5907 5908 5909 5909 5909 5910 5912 5914 5916 5917 5918 5920 5921 5923 5924 5926 5927 5929 5930 5931 5932 5933 5933 5935 5936 5937 5939 5940 5941 5942 5943 5944 5944 5945 5946 5947 5948 5949 5949 5950 5950 5950 5951 5951 5952 5952 5953 5954 5954 5955 5955 5956 5957 5958 5958 5958 5959 5959 5959 5959 5959 5959 5959 5959 5959 5960 5960 5960 5960 5960 5961 5960 5960 5959 5960 5961 5961 5961 5960
5900 5900 5902 5903 5904 5905 5906 5907 5908 5909 5909 5910 5911 5914 5916 5917 5918 5920 5921 5923 5925 5926 5927 5928 5929 5931 5932 5933 5934 5935 5936 5937 5939 5940 5941 5942 5943 5944 5945 5946 5946 5948 5949 5950 5950 5951 5951 5951 5952 5953 5953 5953 5954 5955 5955 5956 5956 5957 5958 5958 5959 5959 5959 5959 5960 5960 5960 5960 5960 5960 5960 5960 5961 5961 5961 5961 5961 5961 5960 5960 5961 5962 5962 5962 5962
5899 5900 5900 5901 5903 5904 5905 5906 5908 5908 5909 5909 5910 5912 5915 5916 5918 5920 5921 5923 5925 5926 5927 5928 5929 5930 5932 5933 5935 5936 5937 5938 5939 5940 5941 5942 5943 5944 5945 5946 5947 5948 5949 5950 5951 5951 5952 5952 5953 5954 5954 5955 5955 5956 5956 5956 5957 5958 5958 5959 5960 5960 5960 5960 5960 5961 5961 5961 5961 5962 5961 5961 5962 5962 5961 5961 5961 5961 5961 5961 5962 5963 5963 5963 5963
5898 5899 5900 5900 5901 5902 5903 5904 5907 5908 5908 5909 5910 5912 5914 5916 5918 5920 5921 5923 5925 5926 5927 5928 5929 5930 5932 5933 5935 5936 5937 5938 5939 5941 5942 5942 5943 5944 5945 5946 5947 5948 5949 5950 5951 5952 5953 5953 5954 5955 5955 5956 5956 5957 5957 5957 5958 5958 5959 5960 5960 5960 5961 5961 5961 5962 5962 5962 5962 5962 5962 5962 5963 5963 5962 5962 5962 5962 5962 5962 5963 5963 5964 5964 5964
5896 5897 5899 5899 5900 5901 5902 5904 5906 5908 5908 5909 5910 5911 5914 5916 5918 5919 5921 5923 5924 5926 5927 5928 5930 5931 5931 5933 5934 5935 5936 5937 5939 5940 5941 5942 5943 5944 5945 5947 5947 5948 5949 5950 5951 5952 5953 5954 5955 5955 5956 5956 5957 5957 5957 5958 5959 5959 5960 5960 5960 5961 5961 5961 5962 5962 5962 5963 5963 5963 5963 5963 5964 5963 5963 5962 5962 5962 5963 5963 5964 5964 5964 5965 5965
5895 5896 5897 5899 5900 5901 5902 5904 5906 5907 5908 5909 5910 5911 5913 5915 5917 5919 5920 5922 5924 5926 5927 5929 5930 5931 5931 5932 5934 5935 5936 5937 5938 5939 5940 5941 5943 5944 5945 5946 5947 5948 5949 5950 5951 5952 5953 5954 5955 5956 5956 5957 5958 5958 5958 5959 5959 5960 5960 5960 5961 5961 5962 5962 5962 5963 5963 5963 5963 5963 5963 5964 5964 5964 5964 5963 5963 5964 5964 5964 5964 5965 5965 5965 5965
5894 5895 5896 5897 5899 5900 5902 5903 5905 5907 5908 5909 5909 5911 5912 5914 5916 5918 5920 5922 5923 5925 5927 5928 5930 5931 5932 5932 5933 5934 5936 5937 5938 5939 5940 5941 5942 5943 5944 5946 5947 5948 5949 5950 5951 5952 5953 5954 5955 5956 5957 5957 5958 5958 5959 5959 5960 5960 5960 5961 5961 5962 5962 5962 5963 5963 5963 5964 5964 5963 5964 5964 5964 5965 5964 5964 5964 5965 5965 5966 5966 5966 5966 5966 5966
5892 5893 5895 5896 5898 5899 5900 5902 5904 5906 5907 5908 5909 5910 5911 5913 5915 5917 5918 5920 5922 5924 5926 5928 5929 5930 5932 5932 5933 5934 5935 5936 5938 5939 5940 5941 5942 5943 5944 5945 5947 5948 5949 5950 5951 5952 5953 5954 5955 5956 5957 5957 5958 5959 5959 5960 5960 5960 5960 5961 5961 5962 5962 5963 5963 5963 5963 5964 5964 5964 5964 5965 5965 5965 5965 5965 5965 5965 5966 5966 5967 5967 5967 5967 5967
5890 5892 5894 5895 5896 5897 5899 5901 5903 5904 5906 5907 5908 5909 5911 5912 5914 5915 5917 5919 5921 5923 5925 5927 5928 5930 5931 5932 5933 5934 5934 5936 5937 5938 5940 5941 5941 5943 5944 5945 5946 5948 5949 5950 5951 5952 5953 5954 5955 5956 5957 5957 5958 5958 5959 5960 5960 5960 5961 5961 5961 5962 5963 5963 5963 5963 5964 5964 5964 5964 5965 5965 5965 5965 5965 5966 5966 5966 5966 5967 5967 5968 5968 5968 5968
5889 5890 5892 5894 5895 5896 5898 5899 5901 5903 5904 5906 5907 5908 5910 5911 5912 5914 5915 5917 5919 5921 5924 5926 5927 5929 5930 5932 5933 5934 5934 5936 5937 5938 5940 5940 5941 5942 5943 5944 5946 5947 5949 5950 5951 5952 5953 5954 5955 5956 5957 5957 5958 5958 5959 5960 5960 5961 5961 5961 5961 5962 5963 5963 5964 5964 5964 5964 5964 5965 5965 5966 5965 5965 5966 5966 5966 5967 5967 5967 5968 5968 5969 5969 5968
5888 5889 5890 5892 5894 5896 5897 5898 5900 5902 5903 5905 5906 5907 5908 5909 5910 5911 5913 5916 5918 5919 5921 5923 5925 5928 5930 5931 5933 5934 5935 5936 5937 5938 5939 5940 5941 5942 5943 5944 5946 5947 5948 5949 5951 5952 5953 5954 5955 5956 5957 5958 5958 5959 5959 5960 5960 5961 5961 5961 5961 5962 5963 5963 5964 5965 5965 5965 5965 5965 5965 5965 5965 5966 5966 5967 5967 5967 5967 5968 5968 5968 5969 5969 5969
5886 5887 5888 5890 5892 5894 5896 5897 5899 5900 5902 5903 5904 5905 5906 5907 5908 5909 5911 5914 5916 5918 5919 5920 5923 5926 5928 5930 5932 5933 5934 5935 5936 5937 5938 5939 5941 5942 5943 5944 5945 5946 5948 5949 5950 5952 5953 5954 5955 5956 5957 5958 5958 5959 5959 5960 5960 5961 5961 5961 5962 5962 5963 5964 5965 5965 5965 5966 5965 5965 5965 5965 5966 5966 5966 5966 5967 5967 5968 5968 5968 5969 5969 5969 5969
5884 5886 5887 5889 5891 5893 5895 5897 5898 5899 5900 5901 5902 5903 5904 5905 5907 5908 5909 5911 5913 5915 5917 5918 5921 5923 5926 5928 5930 5931 5933 5934 5935 5936 5938 5939 5941 5942 5943 5943 5944 5946 5947 5948 5950 5951 5952 5954 5955 5956 5957 5957 5958 5958 5959 5959 5960 5960 5961 5962 5962 5963 5963 5964 5965 5965 5966 5966 5966 5966 5966 5966 5966 5966 5966 5966 5967 5967 5968 5968 5968 5969 5969 5969 5969
5883 5886 5887 5888 5890 5892 5894 5895 5897 5898 5898 5899 5900 5901 5903 5904 5905 5906 5907 5909 5911 5913 5915 5917 5919 5921 5923 5925 5927 5929 5931 5932 5934 5935 5937 5939 5940 5941 5942 5943 5944 5945 5946 5947 5949 5950 5951 5953 5954 5955 5956 5957 5957 5958 5958 5959 5960 5960 5961 5962 5963 5963 5964 5965 5965 5966 5966 5966 5966 5966 5966 5966 5966 5966 5966 5966 5966 5967 5968 5968 5969 5969 5969 5969 5969
5881 5884 5886 5887 5888 5890 5892 5893 5895 5895 5896 5897 5898 5900 5901 5902 5904 5905 5905 5907 5910 5912 5914 5916 5918 5919 5921 5923 5925 5927 5929 5931 5932 5934 5936 5937 5938 5940 5941 5942 5943 5944 5945 5947 5948 5949 5950 5952 5953 5954 5955 5956 5957 5957 5958 5959 5960 5961 5961 5962 5963 5963 5964 5965 5965 5966 5966 5966 5966 5966 5966 5966 5966 5967 5966 5966 5966 5967 5967 5968 5969 5969 5969 5969 5969
5877 5881 5883 5885 5886 5888 5889 5891 5892 5894 5895 5896 5897 5898 5899 5901 5903 5904 5904 5906 5907 5910 5912 5914 5916 5918 5919 5921 5923 5925 5927 5929 5931 5932 5934 5935 5936 5938 5939 5941 5943 5944 5945 5946 5947 5948 5949 5951 5952 5953 5954 5955 5956 5956 5957 5959 5960 5960 5961 5962 5963 5963 5964 5965 5965 5966 5966 5966 5966 5966 5966 5966 5966 5966 5966 5966 5966 5966 5967 5968 5968 5968 5968 5969 5969
5870 5874 5877 5880 5882 5884 5886 5888 5890 5892 5893 5894 5896 5897 5898 5899 5901 5902 5903 5904 5905 5907 5909 5911 5913 5915 5917 5919 5920 5922 5924 5927 5929 5931 5932 5933 5934 5935 5937 5939 5941 5942 5943 5945 5945 5946 5948 5949 5951 5952 5953 5954 5955 5955 5956 5957 5959 5960 5961 5962 5962 5963 5964 5964 5965 5966 5966 5966 5966 5966 5966 5966 5966 5965 5965 5965 5966 5966 5967 5967 5968 5968 5968 5968 5968
5864 5866 5869 5872 5874 5876 5879 5882 5886 5888 5891 5892 5894 5895 5896 5897 5899 5901 5902 5902 5903 5904 5906 5908 5910 5912 5914 5916 5918 5920 5922 5925 5927 5929 5931 5932 5933 5934 5935 5937 5938 5940 5942 5943 5944 5945 5946 5948 5949 5950 5951 5952 5953 5954 5955 5956 5957 5958 5960 5960 5961 5962 5963 5964 5964 5965 5965 5966 5965 5965 5965 5965 5965 5965 5965 5965 5965 5966 5966 5966 5967 5967 5967 5967 5968
5860 5862 5864 5866 5869 5871 5874 5877 5880 5883 5885 5888 5890 5892 5893 5895 5897 5899 5900 5900 5900 5902 5903 5905 5908 5909 5911 5913 5916 5918 5920 5923 5926 5928 5929 5931 5932 5933 5934 5935 5936 5938 5940 5941 5943 5944 5945 5946 5947 5948 5949 5951 5952 5953 5954 5955 5956 5957 5958 5959 5960 5961 5962 5963 5963 5964 5964 5965 5965 5965 5965 5965 5965 5965 5965 5965 5965 5965 5965 5966 5966 5966 5966 5967 5967
5857 5860 5862 5864 5866 5869 5871 5874 5876 5878 5880 5882 5884 5887 5889 5891 5893 5895 5897 5897 5898 5899 5901 5903 5905 5906 5909 5911 5913 5916 5919 5921 5924 5925 5927 5929 5930 5932 5934 5935 5936 5936 5938 5939 5941 5942 5943 5944 5945 5946 5947 5949 5950 5951 5952 5953 5954 5956 5957 5958 5959 5960 5961 5962 5962 5963 5963 5964 5964 5964 5964 5965 5965 5964 5964 5964 5964 5964 5964 5965 5965 5965 5965 5966 5966
5855 5857 5859 5861 5864 5866 5869 5871 5874 5876 5878 5879 5881 5882 5883 5886 5888 5890 5892 5893 5895 5896 5898 5900 5902 5904 5907 5909 5912 5915 5917 5919 5922 5923 5925 5927 5929 5931 5933 5934 5935 5936 5937 5938 5940 5941 5942 5942 5943 5944 5945 5947 5948 5949 5950 5952 5953 5954 5956 5957 5958 5959 5960 5961 5961 5961 5962 5962 5963 5963 5964 5964 5964 5964 5964 5964 5964 5964 5964 5964 5964 5964 5964 5965 5965
5852 5854 5856 5859 5861 5863 5865 5868 5870 5873 5875 5877 5879 5880 5881 5882 5884 5885 5887 5889 5890 5892 5894 5896 5898 5901 5904 5907 5910 5912 5914 5916 5918 5920 5922 5924 5927 5929 5931 5932 5933 5935 5936 5937 5938 5939 5940 5941 5941 5942 5943 5945 5946 5947 5948 5950 5951 5953 5954 5955 5957 5957 5958 5959 5960 5960 5960 5961 5961 5962 5962 5963 5963 5963 5963 5963 5963 5963 5963 5963 5963 5963 5963 5963 5964
5848 5851 5853 5855 5857 5859 5861 5864 5867 5869 5872 5874 5876 5878 5879 5880 5882 5882 5884 5885 5885 5886 5889 5891 5894 5897 5900 5903 5906 5908 5911 5913 5915 5917 5919 5922 5924 5926 5928 5929 5931 5933 5935 5936 5937 5937 5938 5939 5940 5941 5942 5943 5944 5945 5946 5948 5949 5951 5952 5953 5955 5956 5957 5957 5958 5959 5959 5959 5960 5960 5961 5961 5961 5962 5962 5962 5962 5962 5962 5962 5962 5962 5962 5962 5962
5844 5846 5849 5851 5854 5856 5858 5860 5863 5865 5868 5870 5872 5874 5876 5877 5878 5879 5880 5882 5883 5885 5885 5886 5889 5892 5895 5898 5901 5905 5908 5910 5913 5915 5918 5920 5921 5923 5925 5927 5929 5930 5932 5933 5935 5936 5937 5938 5939 5940 5941 5942 5942 5943 5944 5945 5946 5948 5950 5951 5952 5954 5955 5955 5956 5957 5958 5958 5958 5958 5959 5959 5959 5960 5960 5960 5960 5961 5960 5960 5960 5960 5961 5961 5960
5840 5842 5844 5847 5849 5852 5855 5856 5858 5861 5863 5866 5868 5870 5872 5873 5875 5877 5878 5879 5883 5887 5889 5889 5889 5889 5890 5894 5897 5900 5903 5906 5909 5912 5914 5916 5918 5921 5923 5925 5926 5928 5929 5930 5932 5934 5936 5937 5937 5938 5939 5940 5941 5941 5941 5942 5943 5945 5947 5948 5950 5951 5952 5953 5954 5955 5956 5956 5956 5957 5957 5957 5958 5958 5958 5958 5958 5959 5959 5958 5958 5958 5959 5959 5959
5836 5838 5840 5842 5845 5848 5851 5853 5855 5857 5859 5861 5864 5866 5868 5869 5872 5875 5876 5877 5880 5884 5889 5892 5892 5889 5888 5889 5891 5894 5897 5900 5903 5906 5908 5911 5913 5916 5919 5922 5924 5925 5926 5927 5929 5931 5933 5934 5935 5936 5938 5939 5939 5939 5939 5940 5941 5942 5944 5945 5947 5948 5949 5951 5952 5953 5953 5954 5955 5955 5955 5955 5956 5956 5956 5956 5957 5957 5957 5957 5957 5956 5957 5957 5957
5832 5834 5836 5838 5840 5843 5846 5849 5851 5853 5855 5857 5859 5862 5864 5866 5868 5870 5872 5876 5878 5878 5881 5887 5892 5893 5891 5889 5886 5888 5891 5893 5896 5900 5903 5905 5908 5911 5914 5918 5920 5922 5923 5925 5927 5929 5930 5931 5933 5934 5936 5936 5937 5937 5937 5937 5938 5939 5940 5942 5944 5945 5947 5948 5949 5950 5951 5952 5953 5953 5954 5954 5954 5954 5954 5954 5955 5955 5955 5955 5955 5955 5955 5955 5955
5827 5830 5832 5834 5835 5838 5841 5843 5846 5848 5851 5853 5855 5858 5860 5862 5864 5866 5870 5875 5877 5877 5878 5882 5886 5890 5892 5891 5888 5887 5889 5889 5891 5894 5898 5901 5904 5907 5910 5913 5915 5917 5920 5922 5924 5926 5927 5928 5930 5932 5933 5934 5934 5935 5935 5935 5935 5936 5937 5939 5940 5942 5943 5945 5946 5947 5948 5950 5950 5951 5952 5952 5952 5953 5953 5953 5953 5953 5953 5953 5953 5953 5953 5953 5953
5823 5825 5827 5829 5831 5833 5835 5838 5841 5844 5847 5849 5852 5854 5856 5858 5860 5863 5867 5871 5873 5875 5878 5879 5881 5884 5887 5890 5892 5892 5891 5890 5889 5890 5893 5897 5901 5904 5906 5908 5910 5913 5916 5919 5921 5922 5924 5925 5927 5928 5930 5931 5932 5932 5932 5933 5933 5933 5934 5935 5937 5938 5940 5942 5943 5945 5946 5947 5948 5949 5950 5950 5950 5951 5951 5951 5951 5951 5951 5951 5951 5951 5951 5951 5951
5817 5820 5822 5824 5826 5829 5831 5833 5836 5839 5842 5845 5847 5850 5853 5856 5857 5860 5863 5866 5868 5871 5875 5877 5878 5880 5882 5885 5888 5890 5892 5891 5889 5888 5890 5893 5897 5900 5903 5905 5906 5908 5911 5914 5916 5919 5921 5922 5923 5925 5927 5928 5929 5929 5930 5930 5931 5931 5931 5932 5934 5936 5937 5939 5940 5942 5943 5944 5945 5946 5947 5947 5948 5948 5949 5949 5949 5949 5949 5949 5949 5949 5949 5949 5949
5811 5814 5817 5819 5821 5824 5826 5828 5831 5834 5837 5840 5843 5846 5850 5852 5853 5856 5859 5862 5865 5867 5870 5873 5875 5876 5877 5878 5880 5883 5887 5889 5889 5888 5889 5891 5893 5896 5898 5900 5902 5905 5907 5910 5912 5915 5917 5918 5919 5921 5923 5925 5926 5926 5927 5928 5928 5928 5929 5930 5932 5933 5934 5936 5937 5938 5939 5940 5941 5942 5943 5944 5945 5945 5945 5945 5945 5946 5947 5947 5947 5946 5946 5947 5947
5804 5807 5810 5814 5816 5818 5821 5824 5826 5829 5832 5836 5839 5841 5844 5847 5848 5851 5855 5858 5860 5863 5866 5868 5870 5871 5872 5874 5875 5878 5882 5885 5888 5888 5888 5889 5890 5892 5894 5896 5899 5901 5903 5905 5907 5909 5912 5914 5915 5917 5919 5921 5922 5923 5923 5924 5925 5925 5927 5928 5930 5931 5931 5933 5934 5935 5935 5936 5937 5938 5939 5940 5941 5941 5941 5941 5942 5943 5944 5944 5944 5943 5944 5944 5944
5798 5800 5803 5807 5810 5812 5815 5818 5821 5824 5828 5831 5834 5836 5840 5843 5845 5848 5851 5854 5856 5859 5862 5864 5867 5869 5871 5872 5874 5877 5880 5883 5886 5887 5887 5887 5887 5889 5891 5892 5895 5898 5900 5901 5903 5905 5907 5909 5911 5913 5915 5917 5918 5919 5920 5921 5922 5922 5924 5926 5927 5928 5929 5930 5931 5932 5932 5933 5934 5935 5935 5936 5937 5937 5937 5937 5937 5939 5940 5940 5940 5940 5941 5942 5941
5791 5793 5796 5800 5803 5807 5810 5812 5815 5819 5822 5826 5829 5831 5835 5839 5842 5845 5848 5850 5853 5855 5858 5861 5863 5866 5868 5870 5872 5875 5878 5881 5884 5885 5885 5885 5885 5886 5888 5890 5892 5894 5896 5897 5899 5901 5903 5905 5907 5909 5910 5912 5914 5914 5916 5917 5918 5919 5921 5923 5924 5925 5927 5927 5928 5928 5929 5930 5931 5931 5932 5932 5933 5933 5932 5932 5933 5935 5936 5937 5936 5937 5938 5938 5937
5784 5787 5790 5794 5797 5801 5804 5807 5810 5813 5816 5820 5824 5827 5831 5835 5838 5841 5843 5846 5849 5851 5854 5857 5859 5862 5865 5867 5869 5871 5875 5878 5881 5882 5882 5883 5883 5884 5886 5887 5889 5891 5892 5894 5896 5898 5900 5902 5903 5905 5906 5908 5910 5911 5912 5914 5915 5917 5918 5919 5920 5922 5923 5923 5924 5925 5926 5927 5927 5928 5928 5928 5928 5928 5928 5928 5929 5930 5932 5933 5934 5934 5935 5934 5934
5777 5780 5784 5788 5792 5795 5798 5801 5804 5807 5810 5814 5819 5823 5826 5830 5833 5837 5839 5841 5844 5847 5850 5852 5855 5858 5861 5864 5866 5868 5870 5874 5876 5878 5880 5881 5882 5882 5884 5885 5886 5888 5890 5892 5894 5896 5898 5899 5900 5902 5903 5905 5906 5907 5908 5910 5912 5914 5915 5916 5917 5918 5918 5918 5920 5922 5923 5923 5923 5923 5923 5923 5923 5923 5923 5923 5924 5926 5928 5929 5930 5931 5931 5930 5932
5771 5773 5777 5781 5786 5789 5792 5795 5798 5801 5805 5808 5813 5817 5821 5825 5829 5832 5834 5837 5840 5843 5846 5849 5851 5854 5857 5859 5861 5863 5865 5868 5871 5874 5877 5878 5879 5880 5882 5883 5884 5886 5887 5889 5891 5893 5895 5897 5898 5899 5901 5902 5902 5904 5905 5907 5909 5910 5911 5912 5913 5914 5914 5914 5916 5918 5919 5919 5919 5919 5919 5919 5919 5919 5919 5919 5920 5921 5923 5925 5926 5927 5927 5928 5929
5764 5767 5770 5773 5778 5783 5787 5790 5793 5796 5800 5803 5807 5812 5816 5820 5823 5827 5829 5832 5836 5839 5842 5845 5847 5849 5852 5855 5857 5858 5860 5862 5865 5869 5872 5874 5876 5877 5879 5881 5882 5884 5885 5887 5888 5890 5893 5895 5896 5897 5898 5899 5900 5901 5902 5904 5905 5906 5907 5908 5909 5910 5911 5911 5912 5914 5914 5914 5914 5914 5914 5914 5914 5915 5915 5915 5916 5917 5919 5921 5922 5923 5924 5925 5926
5757 5760 5762 5766 5771 5776 5781 5785 5788 5791 5795 5798 5802 5806 5810 5814 5818 5821 5824 5828 5831 5834 5838 5841 5843 5845 5848 5850 5852 5854 5855 5858 5861 5864 5868 5871 5872 5873 5875 5877 5879 5881 5883 5885 5887 5888 5890 5892 5894 5895 5896 5897 5898 5898 5900 5901 5902 5903 5904 5905 5906 5907 5907 5907 5908 5910 5910 5909 5909 5909 5910 5910 5911 5911 5911 5911 5911 5913 5914 5916 5917 5919 5920 5922 5923
5749 5753 5756 5759 5764 5769 5774 5778 5782 5785 5789 5793 5796 5800 5804 5808 5812 5815 5819 5823 5826 5829 5833 5836 5838 5840 5843 5846 5848 5850 5852 5854 5857 5860 5863 5866 5868 5870 5871 5873 5875 5877 5880 5883 5885 5886 5888 5890 5891 5893 5894 5895 5895 5896 5897 5898 5899 5900 5901 5902 5902 5902 5903 5903 5904 5905 5905 5904 5904 5905 5905 5906 5907 5907 5907 5907 5907 5908 5908 5911 5913 5915 5917 5918 5919
5740 5744 5749 5753 5757 5762 5767 5771 5775 5779 5783 5787 5791 5794 5798 5802 5806 5810 5814 5818 5821 5825 5828 5831 5833 5835 5838 5841 5843 5845 5847 5849 5852 5855 5858 5861 5863 5865 5867 5869 5871 5874 5877 5880 5882 5884 5885 5887 5889 5890 5891 5891 5893 5894 5895 5896 5897 5898 5898 5898 5897 5897 5898 5898 5899 5901 5900 5899 5898 5899 5900 5900 5901 5901 5902 5903 5903 5903 5904 5906 5909 5910 5912 5913 5914
5731 5735 5741 5746 5750 5755 5760 5764 5768 5773 5776 5780 5784 5788 5792 5795 5800 5804 5808 5813 5816 5820 5823 5826 5828 5831 5833 5836 5838 5840 5841 5843 5846 5849 5852 5855 5858 5861 5863 5865 5868 5870 5873 5876 5878 5880 5882 5885 5886 5887 5887 5888 5889 5891 5892 5893 5894 5894 5893 5892 5892 5893 5893 5893 5894 5895 5894 5892 5892 5894 5895 5896 5896 5897 5897 5898 5899 5899 5900 5902 5904 5905 5906 5908 5908
5725 5727 5732 5738 5743 5748 5753 5757 5761 5765 5770 5774 5777 5782 5786 5789 5793 5798 5803 5807 5811 5814 5818 5821 5823 5826 5828 5830 5832 5835 5837 5839 5841 5843 5846 5850 5853 5856 5859 5861 5864 5866 5869 5871 5874 5876 5879 5881 5882 5882 5883 5884 5886 5889 5890 5889 5889 5889 5888 5888 5888 5889 5889 5889 5890 5890 5888 5886 5888 5891 5892 5893 5892 5893 5893 5894 5895 5896 5897 5898 5899 5900 5902 5903 5904
5718 5720 5724 5730 5735 5740 5745 5750 5753 5757 5762 5767 5771 5775 5779 5783 5787 5792 5796 5801 5805 5809 5812 5816 5818 5821 5823 5825 5827 5830 5832 5835 5837 5839 5842 5846 5850 5852 5855 5857 5860 5862 5864 5866 5869 5872 5874 5876 5877 5879 5880 5882 5884 5885 5885 5884 5885 5885 5885 5884 5885 5885 5885 5886 5886 5885 5883 5883 5886 5888 5889 5889 5889 5889 5889 5890 5891 5893 5893 5894 5894 5895 5897 5899 5900
5710 5713 5716 5721 5727 5731 5736 5741 5745 5749 5754 5760 5765 5769 5773 5777 5781 5785 5790 5794 5799 5802 5806 5810 5813 5815 5818 5820 5822 5825 5828 5830 5833 5835 5838 5842 5846 5848 5850 5852 5855 5857 5860 5862 5865 5868 5870 5871 5873 5876 5877 5878 5879 5880 5880 5880 5881 5881 5881 5880 5881 5881 5881 5882 5882 5880 5880 5882 5884 5885 5885 5885 5885 5884 5885 5885 5887 5888 5889 5889 5889 5890 5893 5895 5896